User: anonymous   Login
Location: Kailua
(21.4020°N, 157.7390°W)
Time: 01:47:32
(UTC-10:00)
Language:

Cosmos 2221 Rocket - Orbit

View from above orbital plane
View from above orbital plane
View from above satellite
View from above satellite

Ground track
Ground track

The orbit data is extracted from the following two-line orbital elements,

1 22237U 92080B   16145.07269706  .00000108  00000-0  11721-4 0  9994
2 22237  82.5106 119.6784 0020816  41.4566   4.2890 14.78261949265950
Epoch (UTC): 24 May 2016 01:44:41
Eccentricity: 0.0020816
inclination: 82.5106°
perigee height: 620 km
apogee height: 649 km
right ascension of ascending node: 119.6784°
argument of perigee: 41.4566°
revolutions per day: 14.78261949
mean anomaly at epoch: 4.2890°
orbit number at epoch: 26595

The dashed part of the orbit path shows where the satellite is in the earth's shadow,  

DLR